Time,TemperatureF,DewpointF,PressureIn,WindDirection,WindDirectionDegrees,WindSpeedMPH,WindSpeedGustMPH,Humidity,HourlyPrecipIn,Conditions,Clouds,dailyrainin,SoftwareType,DateUTC
2013-03-02 00:06:00,33.4,32.0,29.63,NNW,328,0.0,-999.0,95,-99.99,,,0.00,weatherlink.com 1.10,2013-03-02 05:06:00,
2013-03-02 00:21:00,33.4,32.0,29.63,NNW,328,0.0,-999.0,95,-99.99,,,0.00,weatherlink.com 1.10,2013-03-02 05:21:00,
2013-03-02 00:36:00,33.3,32.0,29.63,NNW,328,2.0,-999.0,95,-99.99,,,0.00,weatherlink.com 1.10,2013-03-02 05:36:00,
2013-03-02 00:51:00,33.2,32.0,29.63,NNW,328,3.0,-999.0,96,-99.99,,,0.00,weatherlink.com 1.10,2013-03-02 05:51:00,
2013-03-02 01:06:00,33.2,32.0,29.63,NNW,329,0.0,-999.0,96,-99.99,,,0.00,weatherlink.com 1.10,2013-03-02 06:06:00,
2013-03-02 01:21:00,33.2,32.0,29.63,NNW,327,2.0,-999.0,96,-99.99,,,0.00,weatherlink.com 1.10,2013-03-02 06:21:00,
2013-03-02 01:36:00,33.1,32.0,29.63,NNW,327,2.0,-999.0,96,-99.99,,,0.00,weatherlink.com 1.10,2013-03-02 06:36:00,
2013-03-02 01:51:00,33.0,32.0,29.62,NW,304,0.0,-999.0,96,-99.99,,,0.00,weatherlink.com 1.10,2013-03-02 06:51:00,
2013-03-02 02:06:00,32.9,32.0,29.62,NW,305,5.0,-999.0,95,-99.99,,,0.00,weatherlink.com 1.10,2013-03-02 07:06:00,
2013-03-02 02:21:00,32.9,32.0,29.62,NW,305,2.0,-999.0,96,-99.99,,,0.00,weatherlink.com 1.10,2013-03-02 07:21:00,
2013-03-02 02:36:00,32.9,32.0,29.62,NW,305,2.0,-999.0,96,-99.99,,,0.00,weatherlink.com 1.10,2013-03-02 07:36:00,
2013-03-02 02:51:00,32.9,32.0,29.62,NW,304,1.0,-999.0,96,-99.99,,,0.00,weatherlink.com 1.10,2013-03-02 07:51:00,
2013-03-02 03:06:00,32.8,32.0,29.62,NW,305,0.0,-999.0,96,-99.99,,,0.00,weatherlink.com 1.10,2013-03-02 08:06:00,
2013-03-02 03:21:00,32.7,32.0,29.61,NW,306,2.0,-999.0,96,-99.99,,,0.00,weatherlink.com 1.10,2013-03-02 08:21:00,
2013-03-02 03:36:00,32.6,32.0,29.61,NW,306,4.0,-999.0,96,-99.99,,,0.00,weatherlink.com 1.10,2013-03-02 08:36:00,
2013-03-02 03:51:00,32.7,32.0,29.61,NW,306,0.0,-999.0,96,-99.99,,,0.00,weatherlink.com 1.10,2013-03-02 08:51:00,
2013-03-02 04:06:00,32.6,32.0,29.62,NW,306,2.0,-999.0,96,-99.99,,,0.00,weatherlink.com 1.10,2013-03-02 09:06:00,
2013-03-02 04:21:00,32.5,32.0,29.62,NW,306,1.0,-999.0,96,-99.99,,,0.00,weatherlink.com 1.10,2013-03-02 09:21:00,
2013-03-02 04:36:00,32.5,32.0,29.62,NW,306,1.0,-999.0,96,-99.99,,,0.00,weatherlink.com 1.10,2013-03-02 09:36:00,
2013-03-02 04:51:00,32.4,31.0,29.62,NW,306,1.0,-999.0,96,-99.99,,,0.00,weatherlink.com 1.10,2013-03-02 09:51:00,
2013-03-02 05:21:00,32.3,31.0,29.62,NW,306,3.0,-999.0,96,-99.99,,,0.00,weatherlink.com 1.10,2013-03-02 10:21:00,
2013-03-02 05:36:00,32.4,31.0,29.62,NW,306,1.0,-999.0,96,-99.99,,,0.00,weatherlink.com 1.10,2013-03-02 10:36:00,
2013-03-02 05:51:00,32.3,31.0,29.62,NW,306,2.0,-999.0,95,-99.99,,,0.00,weatherlink.com 1.10,2013-03-02 10:51:00,
2013-03-02 06:06:00,32.3,31.0,29.62,NW,306,1.0,-999.0,95,-99.99,,,0.00,weatherlink.com 1.10,2013-03-02 11:06:00,
2013-03-02 06:21:00,32.3,31.0,29.62,NW,306,0.0,-999.0,95,-99.99,,,0.00,weatherlink.com 1.10,2013-03-02 11:21:00,
2013-03-02 06:36:00,32.4,31.0,29.62,NW,306,0.0,-999.0,95,-99.99,,,0.00,weatherlink.com 1.10,2013-03-02 11:36:00,
2013-03-02 06:51:00,32.4,31.0,29.63,NW,306,0.0,-999.0,95,-99.99,,,0.00,weatherlink.com 1.10,2013-03-02 11:51:00,
2013-03-02 07:06:00,32.5,31.0,29.63,NW,306,1.0,-999.0,94,-99.99,,,0.00,weatherlink.com 1.10,2013-03-02 12:06:00,
2013-03-02 07:21:00,32.7,31.0,29.63,NW,306,0.0,-999.0,94,-99.99,,,0.00,weatherlink.com 1.10,2013-03-02 12:21:00,
2013-03-02 07:36:00,33.0,31.0,29.64,NW,306,0.0,-999.0,93,-99.99,,,0.00,weatherlink.com 1.10,2013-03-02 12:36:00,
2013-03-02 07:51:00,33.2,31.0,29.64,NW,306,0.0,-999.0,93,-99.99,,,0.00,weatherlink.com 1.10,2013-03-02 12:51:00,
2013-03-02 08:06:00,33.5,32.0,29.64,NW,306,1.0,-999.0,92,-99.99,,,0.01,weatherlink.com 1.10,2013-03-02 13:06:00,
2013-03-02 08:21:00,33.9,32.0,29.64,NW,306,3.0,-999.0,91,-99.99,,,0.01,weatherlink.com 1.10,2013-03-02 13:21:00,
2013-03-02 08:36:00,34.3,32.0,29.63,NW,306,1.0,-999.0,91,-99.99,,,0.02,weatherlink.com 1.10,2013-03-02 13:36:00,
2013-03-02 08:51:00,34.6,32.0,29.63,NW,306,1.0,-999.0,90,-99.99,,,0.03,weatherlink.com 1.10,2013-03-02 13:51:00,
2013-03-02 09:06:00,35.2,32.0,29.63,NW,306,0.0,-999.0,89,-99.99,,,0.03,weatherlink.com 1.10,2013-03-02 14:06:00,
2013-03-02 09:21:00,35.9,33.0,29.63,NW,306,2.0,-999.0,88,-99.99,,,0.03,weatherlink.com 1.10,2013-03-02 14:21:00,
2013-03-02 09:36:00,36.5,33.0,29.62,NW,306,4.0,-999.0,87,-99.99,,,0.03,weatherlink.com 1.10,2013-03-02 14:36:00,
2013-03-02 09:51:00,37.2,33.0,29.62,NW,306,1.0,-999.0,84,-99.99,,,0.03,weatherlink.com 1.10,2013-03-02 14:51:00,
2013-03-02 10:06:00,37.9,33.0,29.62,NW,306,2.0,-999.0,82,-99.99,,,0.03,weatherlink.com 1.10,2013-03-02 15:06:00,
2013-03-02 10:21:00,38.4,33.0,29.62,NW,309,7.0,-999.0,80,-99.99,,,0.04,weatherlink.com 1.10,2013-03-02 15:21:00,
2013-03-02 10:36:00,39.1,33.0,29.62,NNW,327,3.0,-999.0,78,-99.99,,,0.04,weatherlink.com 1.10,2013-03-02 15:36:00,
2013-03-02 10:51:00,39.5,32.0,29.61,NNW,328,3.0,-999.0,75,-99.99,,,0.04,weatherlink.com 1.10,2013-03-02 15:51:00,
2013-03-02 11:06:00,39.7,32.0,29.61,NNW,346,3.0,-999.0,73,-99.99,,,0.04,weatherlink.com 1.10,2013-03-02 16:06:00,
2013-03-02 11:21:00,41.0,34.0,29.61,NNW,346,3.0,-999.0,76,-99.99,,,0.04,weatherlink.com 1.10,2013-03-02 16:21:00,
2013-03-02 11:36:00,41.6,31.0,29.61,NNW,334,3.0,-999.0,67,-99.99,,,0.04,weatherlink.com 1.10,2013-03-02 16:36:00,
2013-03-02 11:51:00,41.3,32.0,29.61,NW,314,1.0,-999.0,70,-99.99,,,0.04,weatherlink.com 1.10,2013-03-02 16:51:00,
2013-03-02 12:06:00,41.4,32.0,29.60,NW,319,6.0,-999.0,68,-99.99,,,0.04,weatherlink.com 1.10,2013-03-02 17:06:00,
2013-03-02 12:21:00,41.4,32.0,29.60,NNW,348,4.0,-999.0,68,-99.99,,,0.04,weatherlink.com 1.10,2013-03-02 17:21:00,
2013-03-02 12:36:00,41.7,32.0,29.59,NNW,331,1.0,-999.0,68,-99.99,,,0.04,weatherlink.com 1.10,2013-03-02 17:36:00,
2013-03-02 12:51:00,41.8,32.0,29.59,NNW,327,2.0,-999.0,67,-99.99,,,0.04,weatherlink.com 1.10,2013-03-02 17:51:00,
2013-03-02 13:06:00,43.3,31.0,29.59,NW,323,3.0,-999.0,63,-99.99,,,0.04,weatherlink.com 1.10,2013-03-02 18:06:00,
2013-03-02 13:21:00,43.4,31.0,29.59,NW,318,3.0,-999.0,62,-99.99,,,0.04,weatherlink.com 1.10,2013-03-02 18:21:00,
2013-03-02 13:36:00,43.7,31.0,29.58,NW,319,2.0,-999.0,62,-99.99,,,0.04,weatherlink.com 1.10,2013-03-02 18:36:00,
2013-03-02 13:51:00,42.9,31.0,29.59,NW,319,3.0,-999.0,63,-99.99,,,0.04,weatherlink.com 1.10,2013-03-02 18:51:00,
2013-03-02 14:06:00,42.9,31.0,29.59,NW,319,3.0,-999.0,64,-99.99,,,0.04,weatherlink.com 1.10,2013-03-02 19:06:00,
2013-03-02 14:21:00,42.6,31.0,29.59,NW,319,2.0,-999.0,63,-99.99,,,0.04,weatherlink.com 1.10,2013-03-02 19:21:00,
2013-03-02 14:36:00,42.4,30.0,29.59,NW,319,2.0,-999.0,63,-99.99,,,0.04,weatherlink.com 1.10,2013-03-02 19:36:00,
2013-03-02 14:51:00,41.8,31.0,29.59,NW,320,1.0,-999.0,65,-99.99,,,0.04,weatherlink.com 1.10,2013-03-02 19:51:00,
2013-03-02 15:06:00,41.2,31.0,29.59,NNW,333,4.0,-999.0,66,-99.99,,,0.04,weatherlink.com 1.10,2013-03-02 20:06:00,
2013-03-02 15:21:00,40.5,31.0,29.59,NNW,346,2.0,-999.0,68,-99.99,,,0.04,weatherlink.com 1.10,2013-03-02 20:21:00,
2013-03-02 15:36:00,39.6,31.0,29.60,North,350,4.0,-999.0,71,-99.99,,,0.04,weatherlink.com 1.10,2013-03-02 20:36:00,
2013-03-02 15:51:00,38.7,32.0,29.60,NNW,338,15.0,-999.0,76,-99.99,,,0.04,weatherlink.com 1.10,2013-03-02 20:51:00,
2013-03-02 16:06:00,38.0,32.0,29.61,NNW,342,3.0,-999.0,79,-99.99,,,0.04,weatherlink.com 1.10,2013-03-02 21:06:00,
2013-03-02 16:21:00,37.7,32.0,29.61,NNW,341,2.0,-999.0,81,-99.99,,,0.04,weatherlink.com 1.10,2013-03-02 21:21:00,
2013-03-02 16:36:00,37.0,32.0,29.62,NNW,343,1.0,-999.0,83,-99.99,,,0.04,weatherlink.com 1.10,2013-03-02 21:36:00,
2013-03-02 16:51:00,36.4,32.0,29.62,NNW,343,0.0,-999.0,85,-99.99,,,0.04,weatherlink.com 1.10,2013-03-02 21:51:00,
2013-03-02 17:06:00,35.9,32.0,29.62,NNW,342,1.0,-999.0,87,-99.99,,,0.04,weatherlink.com 1.10,2013-03-02 22:06:00,
2013-03-02 17:21:00,35.4,32.0,29.63,NNW,343,5.0,-999.0,88,-99.99,,,0.04,weatherlink.com 1.10,2013-03-02 22:21:00,
2013-03-02 17:36:00,35.1,32.0,29.63,NNW,343,0.0,-999.0,89,-99.99,,,0.04,weatherlink.com 1.10,2013-03-02 22:36:00,
2013-03-02 17:51:00,34.8,32.0,29.64,NNW,343,0.0,-999.0,90,-99.99,,,0.04,weatherlink.com 1.10,2013-03-02 22:51:00,
2013-03-02 18:06:00,34.6,32.0,29.64,NW,319,1.0,-999.0,90,-99.99,,,0.04,weatherlink.com 1.10,2013-03-02 23:06:00,
2013-03-02 18:21:00,34.4,32.0,29.64,NW,319,0.0,-999.0,91,-99.99,,,0.04,weatherlink.com 1.10,2013-03-02 23:21:00,
2013-03-02 18:36:00,34.1,32.0,29.64,NW,323,0.0,-999.0,91,-99.99,,,0.04,weatherlink.com 1.10,2013-03-02 23:36:00,
2013-03-02 18:51:00,33.8,32.0,29.64,NW,323,0.0,-999.0,92,-99.99,,,0.04,weatherlink.com 1.10,2013-03-02 23:51:00,
2013-03-02 19:06:00,33.5,32.0,29.64,NW,315,2.0,-999.0,92,-99.99,,,0.04,weatherlink.com 1.10,2013-03-03 00:06:00,
2013-03-02 19:21:00,33.5,32.0,29.64,NW,315,1.0,-999.0,93,-99.99,,,0.04,weatherlink.com 1.10,2013-03-03 00:21:00,
2013-03-02 19:36:00,33.4,32.0,29.63,NW,316,0.0,-999.0,93,-99.99,,,0.04,weatherlink.com 1.10,2013-03-03 00:36:00,
2013-03-02 19:51:00,33.4,32.0,29.63,NW,315,0.0,-999.0,93,-99.99,,,0.04,weatherlink.com 1.10,2013-03-03 00:51:00,
2013-03-02 20:06:00,33.4,32.0,29.63,NW,315,2.0,-999.0,93,-99.99,,,0.04,weatherlink.com 1.10,2013-03-03 01:06:00,
2013-03-02 20:21:00,33.3,32.0,29.63,NW,317,2.0,-999.0,93,-99.99,,,0.04,weatherlink.com 1.10,2013-03-03 01:21:00,
2013-03-02 20:36:00,33.2,31.0,29.63,NW,317,0.0,-999.0,93,-99.99,,,0.04,weatherlink.com 1.10,2013-03-03 01:36:00,
2013-03-02 20:51:00,33.2,31.0,29.63,NW,317,1.0,-999.0,93,-99.99,,,0.04,weatherlink.com 1.10,2013-03-03 01:51:00,
2013-03-02 21:06:00,33.1,31.0,29.63,NW,317,1.0,-999.0,93,-99.99,,,0.04,weatherlink.com 1.10,2013-03-03 02:06:00,
2013-03-02 21:21:00,32.9,31.0,29.63,NW,317,0.0,-999.0,93,-99.99,,,0.04,weatherlink.com 1.10,2013-03-03 02:21:00,
2013-03-02 21:36:00,32.8,31.0,29.63,NW,317,1.0,-999.0,94,-99.99,,,0.04,weatherlink.com 1.10,2013-03-03 02:36:00,
2013-03-02 21:51:00,32.7,31.0,29.63,NW,317,1.0,-999.0,94,-99.99,,,0.04,weatherlink.com 1.10,2013-03-03 02:51:00,
2013-03-02 22:06:00,32.6,31.0,29.63,NW,317,0.0,-999.0,94,-99.99,,,0.04,weatherlink.com 1.10,2013-03-03 03:06:00,
2013-03-02 22:21:00,32.6,31.0,29.62,NW,317,2.0,-999.0,95,-99.99,,,0.04,weatherlink.com 1.10,2013-03-03 03:21:00,
2013-03-02 22:36:00,32.6,31.0,29.62,NW,317,1.0,-999.0,95,-99.99,,,0.04,weatherlink.com 1.10,2013-03-03 03:36:00,
2013-03-02 22:51:00,32.6,31.0,29.61,NW,317,0.0,-999.0,95,-99.99,,,0.04,weatherlink.com 1.10,2013-03-03 03:51:00,
2013-03-02 23:06:00,32.5,31.0,29.61,NW,317,0.0,-999.0,95,-99.99,,,0.04,weatherlink.com 1.10,2013-03-03 04:06:00,
2013-03-02 23:21:00,32.5,31.0,29.61,NW,317,1.0,-999.0,95,-99.99,,,0.04,weatherlink.com 1.10,2013-03-03 04:21:00,
2013-03-02 23:36:00,32.5,31.0,29.61,NW,317,0.0,-999.0,95,-99.99,,,0.04,weatherlink.com 1.10,2013-03-03 04:36:00,
2013-03-02 23:51:00,32.6,31.0,29.61,NW,317,0.0,-999.0,95,-99.99,,,0.04,weatherlink.com 1.10,2013-03-03 04:51:00,